Location: *
(49.9853°N, 3.5569°E)
Time: 20:55:14
(UTC+00:00)

Aureole 1 Rocket - Pass Details

Date: 22 September 2019
Orbit: 379 x 1383 km, 73.9° (Epoch: 18 October)

Event Time Altitude Azimuth Distance (km) Brightness Sun altitude
Rises 18:17:44 0° 332° (NNW) 3,421 7.4 -6.1°
Reaches altitude 10° 18:20:34 10° 327° (NNW) 2,303 6.6 -6.6°
Maximum altitude 18:25:22 44° 257° (WSW) 871 4.4 -7.3°
Drops below altitude 10° 18:29:04 10° 184° (S) 1,768 5.4 -7.9°
Sets 18:31:01 0° 177° (S) 2,541 6.1 -8.2°
